Weather History for Akron Canton, OH

Change the Weather History Date:

Friday, January 4, 2013

  Actual Average Record
Temperature  
Mean Temperature 26 °F 26 °F  
Max Temperature 30 °F 33 °F 64 °F (1997)
Min Temperature 21 °F 20 °F -6 °F (1981)
Degree Days  
Heating Degree Days 39 39  
Month to date heating degree days 174 154  
Since 1 July heating degree days 2320 2484  
Cooling Degree Days 0 0  
Month to date cooling degree days 0 0  
Year to date cooling degree days 0 0  
Moisture  
Dew Point 16 °F    
Average Humidity 64    
Maximum Humidity 75    
Minimum Humidity 53    
Precipitation  
Precipitation T in 0.09 in 1.25 in (2004)
Month to date precipitation 0.03 0.36  
Year to date precipitation 0.03 0.36  
Snow  
Snow T in 0.40 in - ()
Month to date snowfall 0.3 1.6  
Since 1 July snowfall 14.6 15.2  
Snow Depth 5.00 in    
Sea Level Pressure  
Sea Level Pressure 30.20 in    
Wind  
Wind Speed 16 mph (WSW)    
Max Wind Speed 26 mph    
Max Gust Speed 35 mph    
Visibility 9 miles    
Events Snow    
T = Trace of Precipitation, MM = Missing Value Source: NWS Daily Summary

Daily Weather History Graph

Daily Weather History Graph

Search for Another Location

Airport:

Trip Planner

Search our weather history database for the weather conditions in past years. The results will help you decide how hot, cold, wet, or windy it might be!

Date:

Astronomy

Jan. 04, 2013 Rise Set
Actual Time 7:50 AM EST 5:11 PM EST
Civil Twilight 7:19 AM EST 5:42 PM EST
Nautical Twilight 6:45 AM EST 6:16 PM EST
Astronomical Twilight 6:12 AM EST 6:49 PM EST
Moon No Moon Rise 11:29 AM EST (1/4)
Length of Visible Light 10h 22m
Length of Day
9h 20m
Waning Gibbous, 55% of the Moon is Illuminated
Jan 4
Waning Gibbous
Jan 4
Last Quarter
Jan 11
New
Jan 18
First Quarter
Jan 26
Full

Hourly Weather History & Observations

Time (EST) Temp. Windchill Dew Point Humidity Pressure Visibility Wind Dir Wind Speed Gust Speed Precip Events Conditions
12:51 AM 27.0 °F 16.1 °F 19.9 °F 75% 30.21 in 5.0 mi WSW 12.7 mph - 0.00 in Snow Light Snow
1:51 AM 28.0 °F 17.0 °F 19.0 °F 69% 30.19 in 7.0 mi West 13.8 mph 20.7 mph 0.00 in   Overcast
2:51 AM 28.0 °F 18.6 °F 19.9 °F 72% 30.21 in 6.0 mi WSW 10.4 mph - N/A   Haze
3:51 AM 28.4 °F 18.0 °F 19.4 °F 69% 30.16 in 7.0 mi West 12.7 mph 21.9 mph N/A   Overcast
4:51 AM 28.0 °F 17.0 °F 19.9 °F 72% 30.19 in 6.0 mi WSW 13.8 mph - 0.00 in Snow Light Snow
5:51 AM 27.0 °F 14.3 °F 18.0 °F 69% 30.19 in 7.0 mi West 17.3 mph 23.0 mph 0.00 in   Overcast
6:51 AM 26.1 °F 12.0 °F 15.1 °F 63% 30.20 in 9.0 mi West 20.7 mph 31.1 mph N/A   Overcast
7:51 AM 25.0 °F 12.2 °F 16.0 °F 69% 30.22 in 8.0 mi West 16.1 mph 27.6 mph N/A   Overcast
8:51 AM 25.0 °F 12.6 °F 15.1 °F 66% 30.24 in 8.0 mi West 15.0 mph 25.3 mph N/A   Overcast
9:51 AM 25.0 °F 11.3 °F 15.1 °F 66% 30.24 in 10.0 mi WSW 18.4 mph 25.3 mph N/A   Mostly Cloudy
10:51 AM 26.1 °F 11.6 °F 15.1 °F 63% 30.24 in 10.0 mi WSW 21.9 mph 29.9 mph N/A   Mostly Cloudy
11:14 AM 26.6 °F 12.4 °F 15.8 °F 64% 30.18 in 8.0 mi WSW 21.9 mph 27.6 mph N/A   Scattered Clouds
11:51 AM 27.0 °F 12.8 °F 16.0 °F 63% 30.20 in 8.0 mi WSW 21.9 mph 29.9 mph N/A   Scattered Clouds
12:51 PM 28.0 °F 13.9 °F 16.0 °F 61% 30.18 in 10.0 mi SW 23.0 mph 27.6 mph N/A   Scattered Clouds
1:51 PM 28.9 °F 16.1 °F 16.0 °F 58% 30.17 in 8.0 mi WSW 19.6 mph 28.8 mph N/A   Scattered Clouds
2:51 PM 28.4 °F 16.6 °F 15.8 °F 59% 30.11 in 8.0 mi WSW 16.1 mph 32.2 mph N/A   Partly Cloudy
3:51 PM 30.0 °F 18.3 °F 16.0 °F 56% 30.17 in 10.0 mi WSW 17.3 mph 24.2 mph N/A   Clear
4:51 PM 28.9 °F 15.4 °F 15.1 °F 56% 30.17 in 10.0 mi WSW 21.9 mph 34.5 mph N/A   Clear
5:51 PM 28.0 °F 15.7 °F 16.0 °F 61% 30.18 in 10.0 mi WSW 17.3 mph 26.5 mph N/A   Clear
6:51 PM 27.0 °F 13.5 °F 16.0 °F 63% 30.19 in 10.0 mi WSW 19.6 mph 27.6 mph N/A   Clear
7:51 PM 26.1 °F 14.5 °F 16.0 °F 66% 30.22 in 10.0 mi WSW 13.8 mph - N/A   Clear
8:51 PM 26.1 °F 15.0 °F 16.0 °F 66% 30.23 in 10.0 mi WSW 12.7 mph - N/A   Clear
9:51 PM 25.0 °F 17.1 °F 15.1 °F 66% 30.25 in 10.0 mi SW 6.9 mph - N/A   Clear
10:51 PM 21.0 °F 12.4 °F 14.0 °F 74% 30.27 in 10.0 mi SW 6.9 mph - N/A   Clear
11:51 PM 23.0 °F 13.1 °F 15.1 °F 72% 30.27 in 10.0 mi WSW 9.2 mph - N/A   Clear